Location: Unspecified
(49.8670°N, 0.0000°E)
Time: 04:07:55
(UTC+00:00)

Vanguard 1 - Pass Details

Date: 24 June 2019
Orbit: 653 x 3830 km, 34.3° (Epoch: 17 July)

Event Time Altitude Azimuth Distance (km) Brightness Sun altitude
Rises 04:06:08 0° 249° (WSW) 7,307 13.9 1.0°
Reaches altitude 10° 04:12:06 10° 243° (WSW) 5,841 13.4 1.7°
Maximum altitude 04:25:58 37° 185° (S) 2,844 12.2 3.6°
Drops below altitude 10° 04:34:12 10° 122° (ESE) 3,473 13.3 4.7°
Sets 04:36:47 0° 113° (ESE) 4,134 13.8 5.1°
